Het weer levert geen direct gevaar op.    Er zijn geen waarschuwingen afgegeven.


Onweer radar Meer informatie blitzortung!


Regen radar Meer informatie rain snow radar


Bezoek onze andere website:

Template documentation
and downloads

And another site



Select another period ( hide this area )

Eenheden Periode Custom range Directly to
Metrisch Engels Beide
Dagelijkse Wekelijkse Maandelijkse Jaarlijkse
use both date-selectors for a custom range
previous Dag
With this date

WeatherUnderground graphs for this period ( click here )


Dagelijkse Samenvatting Woensdag 20 november 2019
Tijd Temp. ( °C ) Dew pt. ( °C ) Wind ( km/h ) van Windvlaag ( km/h ) Luchtdruk ( hPa ) Humid.( % ) Rainrate ( cm )
Hoog2,1 1,3 0,0 ( 0/0 ) 0,0 1018,4 95 -
Gemiddeld1,2 0,4 0,0 Kalm #32/32 0,0 1018,3 94 -
Laag0,4 -0,4 -   0,0 1018,2 94 -
Dagelijkse Tabular details for Woensdag 20 november 2019
Tijd Temp. ( °C ) Dew pt. ( °C ) Wind ( km/h ) van Windvlaag ( km/h ) Luchtdruk ( hPa ) Humid.( % ) Rainrate ( cm )
00:00 1,9 1,1   Kalm   1018,4 94 -
00:05 2,0 1,3   Kalm   1018,3 95 -
00:10 2,1 1,2   Kalm   1018,4 94 -
00:15 2,1 1,2   Kalm   1018,3 94 -
00:20 2,1 1,2   Kalm   1018,2 94 -
00:25 2,0 1,1   Kalm   1018,3 94 -
00:30 1,9 1,1   Kalm   1018,2 94 -
00:35 1,8 0,9   Kalm   1018,2 94 -
00:40 1,7 0,9   Kalm   1018,2 94 -
00:45 1,7 0,8   Kalm   1018,2 94 -
00:50 1,6 0,7   Kalm   1018,2 94 -
00:55 1,4 0,6   Kalm   1018,2 94 -
01:00 1,3 0,5   Kalm   1018,3 94 -
01:05 1,3 0,4   Kalm   1018,2 94 -
01:10 1,1 0,3   Kalm   1018,3 94 -
01:15 1,0 0,2   Kalm   1018,3 94 -
01:20 1,0 0,2   Kalm   1018,3 94 -
01:25 1,0 0,2   Kalm   1018,3 94 -
01:30 0,9 0,1   Kalm   1018,2 94 -
01:35 0,9 0,1   Kalm   1018,2 94 -
01:40 0,9 0,1   Kalm   1018,2 94 -
01:45 0,9 0,1   Kalm   1018,2 94 -
01:50 0,9 0,1   Kalm   1018,3 94 -
01:55 0,8 0,0   Kalm   1018,3 94 -
02:00 0,7 -0,1   Kalm   1018,2 94 -
02:05 0,7 -0,2   Kalm   1018,2 94 -
02:10 0,6 -0,3   Kalm   1018,2 94 -
02:15 0,5 -0,3   Kalm   1018,2 94 -
02:20 0,4 -0,4   Kalm   1018,2 94 -
02:25 0,4 -0,3   Kalm   1018,3 95 -
02:30 0,4 -0,3   Kalm   1018,3 95 -
02:35 0,4 -0,3   Kalm   1018,4 95 -
Dagelijkse Samenvatting Woensdag 20 november 2019
Tijd Temp. ( °C ) Dew pt. ( °C ) Wind ( km/h ) van Windvlaag ( km/h ) Luchtdruk ( hPa ) Humid.( % ) Rainrate ( cm )
Hoog2,1 1,3 0,0 ( 0/0 ) 0,0 1018,4 95 -
Gemiddeld1,2 0,4 0,0 Kalm #32/32 0,0 1018,3 94 -
Laag0,4 -0,4 -   0,0 1018,2 94 -
Dagelijkse Tabular details for Woensdag 20 november 2019
Tijd Temp. ( °C ) Dew pt. ( °C ) Wind ( km/h ) van Windvlaag ( km/h ) Luchtdruk ( hPa ) Humid.( % ) Rainrate ( cm )
00:00 1,9 1,1   Kalm   1018,4 94 -
00:05 2,0 1,3   Kalm   1018,3 95 -
00:10 2,1 1,2   Kalm   1018,4 94 -
00:15 2,1 1,2   Kalm   1018,3 94 -
00:20 2,1 1,2   Kalm   1018,2 94 -
00:25 2,0 1,1   Kalm   1018,3 94 -
00:30 1,9 1,1   Kalm   1018,2 94 -
00:35 1,8 0,9   Kalm   1018,2 94 -
00:40 1,7 0,9   Kalm   1018,2 94 -
00:45 1,7 0,8   Kalm   1018,2 94 -
00:50 1,6 0,7   Kalm   1018,2 94 -
00:55 1,4 0,6   Kalm   1018,2 94 -
01:00 1,3 0,5   Kalm   1018,3 94 -
01:05 1,3 0,4   Kalm   1018,2 94 -
01:10 1,1 0,3   Kalm   1018,3 94 -
01:15 1,0 0,2   Kalm   1018,3 94 -
01:20 1,0 0,2   Kalm   1018,3 94 -
01:25 1,0 0,2   Kalm   1018,3 94 -
01:30 0,9 0,1   Kalm   1018,2 94 -
01:35 0,9 0,1   Kalm   1018,2 94 -
01:40 0,9 0,1   Kalm   1018,2 94 -
01:45 0,9 0,1   Kalm   1018,2 94 -
01:50 0,9 0,1   Kalm   1018,3 94 -
01:55 0,8 0,0   Kalm   1018,3 94 -
02:00 0,7 -0,1   Kalm   1018,2 94 -
02:05 0,7 -0,2   Kalm   1018,2 94 -
02:10 0,6 -0,3   Kalm   1018,2 94 -
02:15 0,5 -0,3   Kalm   1018,2 94 -
02:20 0,4 -0,4   Kalm   1018,2 94 -
02:25 0,4 -0,3   Kalm   1018,3 95 -
02:30 0,4 -0,3   Kalm   1018,3 95 -
02:35 0,4 -0,3   Kalm   1018,4 95 -

Download your copy of this data-set  here

Our weather-data as stored at Weather Underground. Script ontwikkeld door Jim McMurry. Aangepast voor de template door Leuven-Template.eu

U vindt ons ook hier:

Het Weer Aktueel

European Weather Network

Weather Underground

Benelux Weer Netwerk

Citizen Weather Observer Program (CWOP)

Apparatuur in gebruik:

Weerstation
Davis VP2

Weerprogramma
Weather Display

Weercomputer
My Computer

Webleverancier
WeservIT

Davis VP2

Weather Display

My Computer

WeservIT